EW5925 Weather Reports


time (UTC)temp
F
wind
direction
speed
knots
gust
knots
rain 1hr
in
rain 24hr
in
rain mn
in
humidity
%
barometer
mb
20260905020245 79 6 2.6 7.8 0.00 0.01 0.01 67 1018.9
20260905015705 79 332 2.6 7.8 0.00 0.01 0.01 67 1019.0
20260905015136 79 79 3.5 9.6 0.00 0.01 0.01 67 1019.1
20260905014609 79 4 3.5 9.6 0.00 0.01 0.01 67 1019.3
20260905014040 79 18 2.6 8.7 0.00 0.01 0.01 67 1019.5
20260905013512 80 312 2.6 7.0 0.00 0.01 0.01 67 1019.5
20260905012944 80 317 2.6 6.1 0.00 0.01 0.01 68 1019.6
20260905012910 80 35 2.6 7.0 0.00 0.01 0.01 68 1019.6
20260905011854 80 358 2.6 7.0 0.00 0.01 0.01 68 1019.8
20260905011327 80 38 2.6 7.8 0.00 0.01 0.01 68 1019.8
20260905010809 80 65 3.5 7.8 0.00 0.01 0.01 68 1019.9
20260905010309 80 9 2.6 7.8 0.00 0.01 0.01 67 1020.1
20260905005807 80 16 1.7 7.0 0.00 0.01 0.01 67 1020.1
20260905005527 80 12 1.7 5.2 0.00 0.01 0.01 68 1020.1
20260905004802 79 62 1.7 4.3 0.00 0.01 0.01 69 1020.3
20260905004300 79 61 1.7 5.2 0.00 0.01 0.01 70 1020.4
20260905003802 78 0 1.7 5.2 0.00 0.01 0.01 70 1020.4
20260905003519 78 355 1.7 5.2 0.00 0.01 0.01 70 1020.6
20260905002800 78 324 1.7 4.3 0.00 0.01 0.01 71 1020.6
20260905002254 77 19 0.9 4.3 0.00 0.01 0.01 72 1020.7
20260905001752 77 358 0.9 3.5 0.00 0.01 0.01 74 1020.8
20260905001250 76 355 0.9 3.5 0.00 0.01 0.01 75 1020.8
20260905001012 76 7 0.9 4.3 0.00 0.01 0.01 75 1021.0
20260905000250 75 325 1.7 4.3 0.00 0.01 0.01 76 1021.2
20260904235750 75 320 1.7 4.3 0.00 0.01 0.01 77 1021.3
20260904235249 74 168 0.9 3.5 0.00 0.01 0.01 78 1021.2
20260904234748 74 314 1.7 4.3 0.00 0.01 0.01 79 1021.3
20260904234511 74 338 1.7 4.3 0.00 0.01 0.01 80 1021.3
20260904233749 73 351 1.7 4.3 0.00 0.01 0.01 82 1021.3
20260904233246 72 359 1.7 4.3 0.00 0.01 0.01 83 1021.3
20260904232746 71 337 0.9 3.5 0.00 0.01 0.01 84 1021.4
20260904232248 71 293 0.9 2.6 0.00 0.01 0.01 86 1021.5
20260904231740 71 293 0.9 2.6 0.00 0.01 0.01 86 1021.6
20260904231238 70 321 0.9 2.6 0.00 0.01 0.01 87 1021.6
20260904230736 70 316 0.9 2.6 0.00 0.01 0.01 88 1021.6
20260904230238 69 314 0.0 1.7 0.00 0.01 0.01 88 1021.6
20260904225721 69 314 0.9 1.7 0.00 0.01 0.01 89 1021.6
20260904225711 68 314 0.9 2.6 0.00 0.01 0.01 90 1021.6
20260904224718 67 314 0.9 2.6 0.00 0.01 0.01 91 1021.6
20260904224218 67 222 0.0 1.7 0.00 0.01 0.01 92 1021.5
20260904223718 66 219 0.0 1.7 0.00 0.01 0.01 93 1021.5
20260904223216 65 218 0.0 3.5 0.00 0.01 0.01 94 1021.5
20260904222715 64 215 0.0 3.5 0.00 0.01 0.01 95 1021.5
20260904222212 64 215 0.9 3.5 0.00 0.01 0.01 95 1021.6
20260904221926 63 215 1.7 3.5 0.00 0.01 0.01 95 1021.6
20260904221206 62 192 1.7 2.6 0.00 0.01 0.01 95 1021.6
20260904221145 62 223 0.9 2.6 0.00 0.01 0.01 95 1021.6
20260904220200 62 223 0.9 3.5 0.00 0.01 0.01 95 1021.6
20260904215700 61 222 0.9 3.5 0.00 0.01 0.01 95 1021.6
20260904215200 61 228 0.9 3.5 0.00 0.01 0.01 95 1021.6
20260904214920 61 180 0.9 3.5 0.00 0.01 0.01 94 1021.5
20260904214146 60 180 0.9 4.3 0.00 0.01 0.01 95 1021.6
20260904213646 60 175 0.9 4.3 0.00 0.01 0.01 95 1021.5
20260904213132 60 160 0.9 2.6 0.00 0.01 0.01 94 1021.4
20260904212632 60 160 0.9 2.6 0.00 0.01 0.01 95 1021.4
20260904212130 59 159 0.0 1.7 0.00 0.01 0.01 94 1021.4
20260904211628 59 159 0.0 1.7 0.00 0.01 0.01 94 1021.3
20260904211126 58 159 0.0 1.7 0.00 0.01 0.01 94 1021.2
20260904210624 58 159 0.0 3.5 0.00 0.01 0.01 94 1021.2
20260904210124 58 159 0.0 3.5 0.00 0.01 0.01 94 1021.2
20260904205850 57 158 0.0 0.9 0.00 0.01 0.01 94 1021.1
20260904205123 57 158 0.0 0.9 0.00 0.01 0.01 93 1021.0
20260904204845 57 158 0.0 0.9 0.00 0.01 0.01 93 1021.0
20260904204349 56 158 0.0 1.7 0.00 0.01 0.01 93 1021.0
20260904203616 56 158 0.0 1.7 0.00 0.01 0.01 93 1021.0
20260904203114 56 158 0.0 0.0 0.00 0.01 0.01 93 1020.9
20260904202612 56 158 0.0 0.9 0.00 0.01 0.01 93 1020.9
20260904202114 56 158 0.0 0.9 0.00 0.01 0.01 93 1020.9
20260904201837 56 158 0.0 1.7 0.00 0.01 0.01 92 1020.8
20260904201104 56 158 0.0 1.7 0.00 0.01 0.01 92 1020.7
20260904200602 56 158 0.0 1.7 0.00 0.01 0.01 92 1020.6
20260904200108 56 158 0.0 1.7 0.00 0.01 0.01 92 1020.5
20260904195825 56 158 0.0 0.9 0.00 0.01 0.01 92 1020.5
20260904195058 56 158 0.0 0.9 0.00 0.01 0.01 92 1020.5
20260904194555 56 158 0.0 0.9 0.00 0.01 0.01 92 1020.4
20260904194052 56 158 0.0 0.9 0.00 0.01 0.01 92 1020.4
20260904193545 56 158 0.0 0.9 0.00 0.01 0.01 92 1020.3
20260904193045 56 158 0.0 0.9 0.00 0.01 0.01 92 1020.3
20260904192543 56 158 0.0 0.9 0.00 0.01 0.01 92 1020.3
20260904192040 56 158 0.0 0.9 0.00 0.01 0.01 91 1020.3
20260904191538 57 158 0.0 0.9 0.00 0.01 0.01 91 1020.2
20260904191036 57 158 0.0 0.9 0.00 0.01 0.01 91 1020.2
20260904190759 57 158 0.0 0.9 0.00 0.02 0.01 91 1020.2
20260904190010 57 158 0.0 0.0 0.00 0.02 0.01 91 1020.2
20260904185449 57 158 0.0 0.9 0.00 0.02 0.01 91 1020.1
20260904184951 57 158 0.0 0.9 0.00 0.02 0.01 91 1020.1
20260904184445 57 158 0.0 0.9 0.00 0.02 0.01 91 1020.1
20260904183945 58 158 0.0 0.9 0.00 0.02 0.01 91 1020.0
20260904183713 58 158 0.0 0.9 0.00 0.02 0.01 91 1020.0
20260904183204 58 158 0.0 0.9 0.00 0.02 0.01 91 1020.0
20260904182444 58 158 0.0 0.9 0.00 0.02 0.01 91 1020.0
20260904182213 58 158 0.0 0.0 0.00 0.02 0.01 91 1020.0
20260904181441 58 158 0.0 0.0 0.01 0.02 0.01 91 1020.1
20260904180940 58 158 0.0 0.0 0.01 0.02 0.01 91 1020.1
20260904180438 58 158 0.0 0.0 0.01 0.02 0.01 91 1020.0
20260904175938 58 158 0.0 0.0 0.01 0.02 0.01 91 1020.0
20260904175433 58 158 0.0 0.0 0.01 0.02 0.01 91 1020.0
20260904174932 59 158 0.0 0.0 0.01 0.02 0.01 91 1020.0
20260904174426 59 158 0.0 0.0 0.01 0.02 0.01 91 1019.9
20260904173924 59 158 0.0 0.9 0.01 0.02 0.01 91 1019.8
20260904173421 59 158 0.0 0.9 0.01 0.02 0.01 91 1019.8
20260904172924 59 158 0.0 0.0 0.01 0.02 0.01 91 1019.9
20260904172358 60 158 0.0 0.0 0.01 0.02 0.01 91 1019.9
20260904171827 60 158 0.0 0.0 0.00 0.01 0.00 91 1019.9
20260904171329 60 158 0.0 0.0 0.00 0.01 0.00 91 1019.9
20260904170823 60 158 0.0 0.0 0.00 0.01 0.00 91 1019.9
20260904170323 60 158 0.0 0.0 0.00 0.01 0.00 90 1019.9
20260904165816 60 158 0.0 0.0 0.00 0.01 0.00 90 1019.9
20260904165318 60 158 0.0 0.0 0.00 0.01 0.00 90 1019.9
20260904164812 60 158 0.0 0.0 0.00 0.01 0.00 90 1019.9
20260904164312 60 158 0.0 0.0 0.00 0.01 0.00 90 1020.0
20260904164030 61 158 0.0 0.0 0.00 0.01 0.00 90 1020.0
20260904163309 61 158 0.0 0.0 0.00 0.01 0.00 90 1020.0
20260904162805 61 158 0.0 0.0 0.00 0.01 0.00 90 1020.0
20260904162531 61 158 0.0 0.0 0.00 0.01 0.00 90 1020.0
20260904161800 61 158 0.0 0.0 0.00 0.01 0.00 90 1019.9
20260904161301 61 158 0.0 0.0 0.00 0.01 0.00 90 1020.0
20260904160755 62 158 0.0 0.0 0.00 0.01 0.00 90 1020.0
20260904160311 62 158 0.0 0.0 0.00 0.01 0.00 90 1020.0
20260904155731 62 158 0.0 0.0 0.00 0.01 0.00 90 1020.0
20260904155211 62 158 0.0 0.0 0.00 0.01 0.00 90 1019.9
20260904154713 62 158 0.0 0.0 0.00 0.01 0.00 90 1020.0
20260904154147 62 158 0.0 0.0 0.00 0.01 0.00 90 1020.0
20260904153621 62 158 0.0 0.9 0.00 0.01 0.00 90 1019.9
20260904153107 63 158 0.0 0.9 0.00 0.01 0.00 90 1019.9
20260904152526 63 158 0.0 0.0 0.00 0.01 0.00 90 1019.9
20260904152001 63 158 0.0 0.9 0.00 0.01 0.00 90 1019.9
20260904151435 63 158 0.0 0.9 0.00 0.01 0.00 90 1020.0
20260904150909 63 158 0.0 0.0 0.00 0.01 0.00 90 1020.0
20260904150412 64 158 0.0 0.0 0.00 0.01 0.00 90 1020.0
20260904145858 64 158 0.0 0.0 0.00 0.01 0.00 90 1020.0
20260904145357 64 158 0.0 0.0 0.00 0.01 0.00 90 1020.0
20260904145110 64 158 0.0 0.0 0.00 0.01 0.00 90 1020.0
20260904144353 64 158 0.0 0.0 0.00 0.01 0.00 91 1020.0
20260904143852 64 158 0.0 0.9 0.00 0.01 0.00 91 1020.0
20260904143349 64 158 0.0 0.9 0.00 0.01 0.00 91 1019.9
20260904143111 64 158 0.0 0.9 0.00 0.01 0.00 91 1019.9
20260904142346 64 158 0.0 2.6 0.00 0.01 0.00 90 1019.9
20260904141843 64 158 0.9 2.6 0.00 0.01 0.00 90 1019.9
20260904141344 65 158 0.9 1.7 0.00 0.01 0.00 90 1019.9
20260904140841 65 158 0.0 1.7 0.00 0.01 0.00 90 1019.8
20260904140339 65 158 0.0 0.9 0.00 0.01 0.00 91 1019.8
20260904135836 65 158 0.0 0.9 0.00 0.01 0.01 91 1019.9
20260904135338 65 158 0.0 0.9 0.00 0.01 0.01 91 1019.8
20260904134825 65 158 0.9 2.6 0.00 0.01 0.01 91 1019.8
20260904134323 65 158 0.9 2.6 0.00 0.01 0.01 91 1019.8
20260904133824 65 155 0.9 2.6 0.00 0.01 0.01 91 1019.8
20260904133322 65 145 0.0 2.6 0.00 0.01 0.01 91 1019.8
20260904132822 65 138 0.9 3.5 0.00 0.01 0.01 91 1019.7
20260904132316 65 138 1.7 3.5 0.00 0.01 0.01 91 1019.7
20260904131816 65 151 0.9 3.5 0.00 0.01 0.01 91 1019.7
20260904131538 65 142 0.9 2.6 0.00 0.01 0.01 91 1019.8
20260904130814 65 193 0.9 2.6 0.00 0.01 0.01 91 1019.8
20260904130533 65 197 0.9 2.6 0.00 0.01 0.01 91 1019.7
20260904125806 65 165 0.9 2.6 0.00 0.01 0.01 91 1019.8
20260904125521 65 132 0.9 2.6 0.00 0.01 0.01 91 1019.7
20260904124804 66 135 0.9 2.6 0.00 0.01 0.01 91 1019.7
20260904124306 66 153 0.9 2.6 0.00 0.01 0.01 91 1019.8
20260904123740 66 124 0.9 2.6 0.00 0.01 0.01 91 1019.7
20260904123231 66 154 0.9 4.3 0.00 0.01 0.01 91 1019.8
20260904122731 66 185 1.7 4.3 0.00 0.01 0.01 91 1019.8
20260904122227 66 129 1.7 3.5 0.00 0.01 0.01 91 1019.9
20260904121726 66 185 1.7 5.2 0.00 0.01 0.01 91 1019.8
20260904121238 66 125 1.7 6.1 0.00 0.01 0.01 91 1019.8
20260904120724 66 157 1.7 6.1 0.00 0.01 0.01 91 1019.9
20260904120224 66 165 1.7 6.1 0.00 0.01 0.01 91 1019.9
20260904115942 67 140 1.7 6.1 0.00 0.01 0.01 91 1019.9
20260904115216 67 127 1.7 6.1 0.00 0.01 0.01 90 1020.0
20260904114715 67 125 1.7 6.1 0.00 0.01 0.01 90 1019.9
20260904114213 67 137 1.7 4.3 0.00 0.01 0.01 90 1019.9
20260904113712 67 124 1.7 4.3 0.00 0.01 0.01 90 1020.0
20260904113214 67 117 1.7 5.2 0.00 0.01 0.01 90 1020.0
20260904112911 67 126 1.7 4.3 0.00 0.01 0.01 90 1019.9
20260904112124 67 127 1.7 3.5 0.00 0.01 0.01 90 1019.9
20260904111555 67 117 1.7 4.3 0.00 0.01 0.01 90 1019.9
20260904111031 67 115 1.7 4.3 0.00 0.01 0.01 90 1019.9
20260904110901 68 116 1.7 4.3 0.00 0.01 0.01 89 1019.8
20260904110524 67 142 1.7 4.3 0.00 0.01 0.01 89 1019.9
20260904105410 68 114 1.7 4.3 0.00 0.01 0.01 89 1019.7
20260904104847 68 116 0.9 2.6 0.00 0.01 0.01 89 1019.7
20260904104320 68 116 0.9 2.6 0.00 0.01 0.01 89 1019.7
20260904103753 68 116 1.7 4.3 0.00 0.01 0.01 89 1019.7
20260904103443 68 116 1.7 4.3 0.00 0.01 0.01 88 1019.6
20260904102657 69 114 1.7 4.3 0.00 0.01 0.01 88 1019.6
20260904102353 69 121 1.7 5.2 0.00 0.01 0.01 88 1019.6
20260904101608 69 112 1.7 5.2 0.00 0.01 0.01 88 1019.5
20260904101327 69 114 1.7 4.3 0.00 0.01 0.01 88 1019.5
20260904100606 69 116 1.7 4.3 0.00 0.01 0.01 87 1019.4
20260904100111 69 125 0.9 2.6 0.00 0.01 0.01 87 1019.3
20260904095603 70 125 0.9 2.6 0.00 0.01 0.01 87 1019.4
20260904095102 70 129 0.9 2.6 0.00 0.01 0.01 87 1019.3
20260904094558 70 129 0.9 2.6 0.00 0.01 0.01 87 1019.3
20260904094058 70 112 0.0 2.6 0.00 0.01 0.01 87 1019.2
20260904093559 70 112 0.9 2.6 0.00 0.01 0.01 86 1019.2
20260904093057 70 112 0.9 2.6 0.00 0.01 0.01 86 1019.2
20260904092555 70 112 0.9 2.6 0.00 0.01 0.01 86 1019.1
20260904092317 71 112 0.9 2.6 0.00 0.01 0.01 86 1019.1
20260904091814 71 112 0.9 1.7 0.00 0.01 0.01 86 1019.1
20260904091051 71 112 0.0 1.7 0.00 0.01 0.01 86 1018.9
20260904090817 71 112 0.0 1.7 0.00 0.01 0.01 85 1018.9
20260904090104 71 112 0.0 0.9 0.00 0.01 0.01 85 1018.9
20260904085546 71 112 0.0 2.6 0.00 0.01 0.01 85 1018.8
20260904085306 71 112 0.9 2.6 0.00 0.01 0.01 85 1018.7
20260904084542 71 112 0.9 2.6 0.00 0.01 0.01 85 1018.7
20260904084303 71 112 0.9 2.6 0.00 0.01 0.01 85 1018.7
20260904083515 71 112 0.9 2.6 0.00 0.01 0.01 85 1018.7
20260904083015 72 114 0.9 3.5 0.00 0.01 0.01 85 1018.6
20260904082510 72 114 0.9 3.5 0.00 0.01 0.01 84 1018.7
20260904082008 72 109 0.9 3.5 0.00 0.01 0.01 84 1018.5
20260904081519 72 116 0.9 4.3 0.00 0.01 0.01 83 1018.5
20260904081006 72 116 0.9 4.3 0.00 0.01 0.01 83 1018.5
20260904080730 72 116 0.9 4.3 0.00 0.01 0.01 83 1018.4
20260904080008 72 116 0.9 4.3 0.00 0.01 0.01 82 1018.3
20260904075507 73 115 0.9 6.1 0.00 0.01 0.01 82 1018.2
20260904075005 73 143 1.7 6.1 0.00 0.01 0.01 81 1018.2
20260904074727 73 124 1.7 6.1 0.00 0.01 0.01 81 1018.0
20260904073957 73 120 1.7 6.1 0.00 0.01 0.01 80 1017.9
20260904073728 73 115 1.7 6.1 0.00 0.01 0.01 79 1017.9
20260904072953 74 132 2.6 6.1 0.00 0.01 0.01 79 1017.9
20260904072449 74 122 2.6 6.1 0.00 0.01 0.01 78 1017.8
20260904071947 74 116 2.6 7.0 0.00 0.01 0.01 77 1017.8
20260904071449 75 123 2.6 7.8 0.00 0.01 0.01 76 1017.8
20260904070945 75 131 1.7 7.8 0.00 0.01 0.01 75 1017.8
20260904070445 75 125 1.7 6.1 0.00 0.01 0.01 74 1017.7
20260904065945 75 104 1.7 6.1 0.00 0.01 0.01 73 1017.7
20260904065443 76 122 1.7 6.1 0.00 0.01 0.01 72 1017.5
20260904065210 76 114 2.6 6.1 0.00 0.01 0.01 72 1017.5
20260904064457 76 114 1.7 6.1 0.00 0.01 0.01 71 1017.5
20260904063938 76 114 1.7 11.3 0.00 0.01 0.01 70 1017.5
20260904063435 77 94 2.6 11.3 0.00 0.01 0.01 68 1017.4
20260904063417 77 128 2.6 11.3 0.00 0.01 0.01 67 1017.4
20260904062431 78 114 1.7 11.3 0.00 0.01 0.01 65 1017.3
20260904061931 78 116 1.7 4.3 0.00 0.01 0.01 65 1017.3
20260904061431 79 67 1.7 5.2 0.00 0.01 0.01 64 1017.2
20260904060933 79 118 2.6 7.0 0.00 0.01 0.01 62 1017.1
20260904060417 80 110 1.7 7.8 0.00 0.01 0.01 62 1017.0
20260904055915 80 111 1.7 7.8 0.00 0.01 0.01 61 1017.0
20260904055409 80 112 2.6 10.4 0.00 0.01 0.01 60 1017.0
20260904055131 81 107 2.6 10.4 0.00 0.01 0.01 58 1017.0
20260904054405 81 139 2.6 9.6 0.00 0.01 0.01 57 1017.0
20260904054124 82 120 2.6 9.6 0.00 0.01 0.01 57 1017.0
20260904053632 82 114 3.5 9.6 0.00 0.01 0.01 54 1016.9
20260904052903 83 110 3.5 8.7 0.00 0.01 0.01 54 1016.9
20260904052623 83 124 2.6 8.7 0.00 0.01 0.01 54 1016.8
20260904051900 84 131 2.6 8.7 0.00 0.01 0.01 53 1016.9
20260904051401 84 122 2.6 7.8 0.00 0.01 0.01 52 1016.8
20260904050903 84 92 2.6 9.6 0.00 0.01 0.01 49 1016.8
20260904050341 85 124 2.6 9.6 0.00 0.01 0.01 46 1016.8
20260904050106 85 109 1.7 7.8 0.00 0.01 0.01 46 1016.7
20260904045327 85 114 1.7 7.8 0.00 0.01 0.01 46 1016.8
20260904045042 85 126 3.5 9.6 0.00 0.01 0.01 46 1016.8
20260904044318 86 118 2.6 9.6 0.00 0.01 0.01 45 1016.8
20260904043820 86 129 2.6 9.6 0.00 0.01 0.01 43 1016.8
20260904043319 86 66 2.6 9.6 0.00 0.01 0.01 41 1016.9
20260904042816 87 121 1.7 7.0 0.00 0.01 0.01 40 1016.8
20260904042316 87 110 1.7 7.0 0.00 0.01 0.01 39 1016.8
20260904041818 88 89 1.7 7.0 0.00 0.01 0.01 38 1016.9
20260904041315 88 46 1.7 7.0 0.00 0.01 0.01 37 1017.0
20260904040814 88 102 1.7 7.0 0.00 0.01 0.01 37 1017.1
20260904040313 89 80 1.7 9.6 0.00 0.01 0.01 38 1017.0
20260904040039 89 116 1.7 9.6 0.00 0.01 0.01 37 1017.0
20260904035803 89 116 1.7 6.1 0.00 0.01 0.01 37 1017.0
20260904035024 89 126 1.7 7.8 0.00 0.01 0.01 37 1017.1
20260904034307 89 61 0.9 7.8 0.00 0.01 0.01 37 1017.2
20260904033759 90 79 1.7 7.8 0.00 0.01 0.01 37 1017.1
20260904033257 90 53 2.6 7.8 0.00 0.01 0.01 36 1017.1
20260904032754 91 60 2.6 6.1 0.00 0.01 0.01 38 1017.2
20260904032252 91 49 2.6 6.1 0.00 0.01 0.01 38 1017.2
20260904031750 92 45 1.7 6.1 0.00 0.01 0.01 34 1017.2
20260904031514 92 324 0.9 6.1 0.00 0.01 0.01 29 1017.3
20260904031332 92 324 0.9 6.1 0.00 0.01 0.01 29 1017.3
20260904030747 92 195 0.9 6.1 0.00 0.01 0.01 29 1017.4
20260904030245 92 243 0.9 3.5 0.00 0.01 0.01 29 1017.5
20260904030001 92 254 1.7 4.3 0.00 0.01 0.01 28 1017.5
20260904025236 91 313 1.7 6.1 0.00 0.01 0.01 31 1017.6
20260904024735 91 106 0.9 6.1 0.00 0.01 0.01 28 1017.6
20260904024236 91 206 2.6 7.8 0.00 0.01 0.01 30 1017.7
20260904023710 91 278 2.6 7.8 0.00 0.01 0.01 32 1017.8
20260904023212 91 310 1.7 4.3 0.00 0.01 0.01 32 1017.9
20260904022710 90 14 0.9 4.3 0.00 0.01 0.01 32 1018.0
20260904022428 90 82 1.7 6.1 0.00 0.01 0.01 33 1018.0
20260904021704 90 120 0.9 6.1 0.00 0.01 0.01 32 1018.1
20260904021202 89 118 1.7 7.0 0.00 0.01 0.01 34 1018.2
20260904020700 89 185 1.7 7.0 0.00 0.01 0.01 33 1018.3